Hyde Park, UT

7:43 PM MST on January 20, 2017 (GMT -0700)
Logan-Cache

Weather History for KLGU - December, 2013

Change the Weather History Date:

Monday, December 9, 2013

  Actual Average Record
Temperature  
Mean Temperature -2 °F -  
Max Temperature 9 °F 35 °F 53 °F (1981)
Min Temperature -14 °F 16 °F -15 °F (1956)
Degree Days  
Heating Degree Days 68    
Moisture  
Dew Point -6 °F    
Average Humidity 76    
Maximum Humidity 87    
Minimum Humidity 64    
Precipitation  
Precipitation 0.00 in - - ()
Sea Level Pressure  
Sea Level Pressure 30.70 in    
Wind  
Wind Speed 3 mph (West)    
Max Wind Speed 8 mph    
Max Gust Speed -    
Visibility 10 miles    
Events      
Averages and records for this station are not official NWS values.
T = Trace of Precipitation, MM = Missing Value Source: NWS Daily Summary

Daily Weather History Graph

Daily Weather History Graph

Search for Another Location

Airport or City:

Trip Planner

Search our weather history database for the weather conditions in past years. The results will help you decide how hot, cold, wet, or windy it might be!

Date:

Astronomy

Dec. 09, 2013 Rise Set
Actual Time 7:43 AM MST 4:56 PM MST
Civil Twilight 7:11 AM MST 5:27 PM MST
Nautical Twilight 6:36 AM MST 6:02 PM MST
Astronomical Twilight 6:03 AM MST 6:36 PM MST
Moon 12:33 PM MST (12/9) No Moon Set
Length of Visible Light 10h 16m
Length of Day
9h 13m
First Quarter, 52% of the Moon is Illuminated
Dec 9
First Quarter
Dec 17
Full
Dec 25
Last Quarter
Jan 1
New
Jan 7
First Quarter

Hourly Weather History & Observations

Time (MST) Temp. Windchill Dew Point Humidity Pressure Visibility Wind Dir Wind Speed Gust Speed Precip Events Conditions
12:51 AM 1.0 °F -8.7 °F -4.0 °F 79% 30.44 in 10.0 mi NW 4.6 mph - N/A   Partly Cloudy
1:51 AM 1.0 °F - -5.1 °F 75% 30.43 in 10.0 mi Calm Calm - N/A   Clear
2:51 AM -6.0 °F -16.9 °F -11.0 °F 79% 30.52 in 10.0 mi NW 4.6 mph - N/A   Clear
3:51 AM -7.1 °F - -11.9 °F 79% 30.56 in 10.0 mi Calm Calm - N/A   Clear
4:51 AM -8.0 °F -21.0 °F -11.9 °F 83% 30.59 in 10.0 mi SSW 5.8 mph - N/A   Clear
5:51 AM -11.9 °F - -15.0 °F 86% 30.65 in 10.0 mi Calm Calm - N/A   Clear
6:51 AM -7.1 °F - -11.9 °F 79% 30.63 in 10.0 mi Calm Calm - N/A   Clear
7:51 AM -14.1 °F -23.9 °F -17.0 °F 87% 30.68 in 10.0 mi North 3.5 mph - N/A   Clear
8:51 AM -8.0 °F -23.9 °F -13.0 °F 79% 30.70 in 10.0 mi NNW 8.1 mph - N/A   Clear
9:51 AM -4.0 °F -12.4 °F -9.0 °F 79% 30.74 in 10.0 mi NW 3.5 mph - N/A   Clear
10:51 AM -2.0 °F -15.4 °F -6.0 °F 83% 30.77 in 9.0 mi WSW 6.9 mph - N/A   Clear
11:51 AM -0.9 °F - -6.0 °F 79% 30.78 in 10.0 mi Calm Calm - N/A   Clear
12:51 PM 1.9 °F -5.6 °F -5.1 °F 72% 30.76 in 10.0 mi West 3.5 mph - N/A   Clear
1:51 PM 5.0 °F - -4.0 °F 66% 30.75 in 10.0 mi Calm Calm - N/A   Overcast
2:51 PM 5.0 °F -2.1 °F -4.0 °F 66% 30.76 in 10.0 mi WNW 3.5 mph - N/A   Overcast
3:51 PM 7.0 °F - -2.9 °F 64% 30.78 in 10.0 mi Calm Calm - N/A   Overcast
4:51 PM 6.1 °F -2.8 °F -2.0 °F 69% 30.79 in 10.0 mi West 4.6 mph - N/A   Overcast
5:51 PM 5.0 °F -2.1 °F -2.0 °F 73% 30.82 in 10.0 mi SSE 3.5 mph - N/A   Overcast
6:51 PM 5.0 °F -5.6 °F -2.0 °F 73% 30.79 in 10.0 mi WSW 5.8 mph - N/A   Overcast
7:51 PM 6.1 °F -2.8 °F -0.0 °F 76% 30.82 in 10.0 mi East 4.6 mph - N/A   Overcast
8:51 PM 7.0 °F - -0.0 °F 73% 30.79 in 10.0 mi Calm Calm - N/A   Overcast
9:51 PM 7.0 °F 0.1 °F 1.0 °F 77% 30.77 in 10.0 mi WSW 3.5 mph - N/A   Overcast
10:51 PM 9.0 °F - 1.0 °F 70% 30.75 in 10.0 mi Calm Calm - N/A   Overcast
11:51 PM 8.1 °F - 1.9 °F 76% 30.73 in 10.0 mi Calm Calm - N/A   Overcast